Regional Weather Roundup
Issued by NWS Bismarck, ND

Home | Current Version | Previous Version | Text Only | Print | Product List | Glossary On
Versions: 1 2 3 4 5 6 7 8 9 10 11 12 13 14 15 16 17 18 19 20 21 22 23 24 25 26 27 28 29 30 31 32 33 34 35 36 37 38 39 40 41 42 43 44 45 46 47 48 49 50
000
ASUS43 KBIS 260410
RWRBIS

NWR BROADCAST TEXT
NATIONAL WEATHER SERVICE BISMARCK ND
1000 PM CST THU DEC 25 2014

NOTE: "FAIR" INDICATES FEW OR NO CLOUDS BELOW 12,000 FEET WITH NO
SIGNIFICANT WEATHER AND/OR OBSTRUCTIONS TO VISIBILITY.


CITY           SKY/WX    TMP DP  RH WIND       PRES   REMARKS
WILLISTON      CLOUDY    19  13  77 NW8       30.07R WCI   9
MINOT          CLOUDY    21  15  78 NW16      30.02R WCI   7
MINOT AFB      CLOUDY    18  16  91 NW18      30.02R WCI   2
BISMARCK       CLOUDY    25  20  81 NW9       30.01R WCI  15
DICKINSON      CLOUDY    22  16  78 NW10      29.98R WCI  11
GARRISON         N/A     23  18  81 NW14      30.01R WCI  11
HETTINGER ARPT CLOUDY    22  16  78 N13       29.99R WCI  10
JAMESTOWN      CLOUDY    25  21  85 N9        29.96R WCI  15
BEACH          CLOUDY    18  16  93 NW9       30.04R WCI   6
CARRINGTON     CLOUDY    25  25 100 MISG      29.99R
CROSBY         CLOUDY    10   9  92 NW9       30.08R WCI  -2
HARVEY         CLOUDY    21  19  93 NW14      30.00R WCI   8
HAZEN          CLOUDY    25  18  74 N8        30.03S WCI  16
LINTON         CLOUDY    27  25  93 NW10      29.98R WCI  17
MANDAN         CLOUDY    25  19  80 NW9       30.01R WCI  15
OAKES            N/A     27  27 100 N10       29.96R WCI  17
RUGBY          CLOUDY    19  18  93 N9        30.01R WCI   9
STANLEY        CLOUDY    14  14 100 NW10      30.03R WCI   1
TIOGA          CLOUDY    10  10 100 NW12      30.07R WCI  -4
WATFORD CITY   CLOUDY    19  16  86 NW9       30.03R WCI   9
$$

CITY           SKY/WX    TMP DP  RH WIND       PRES   REMARKS
GRAND FORKS    CLOUDY    25  21  85 N9        30.00R WCI  15
GRAND FORKS AF CLOUDY    25  23  91 N8        30.00R WCI  17
DEVILS LAKE    CLOUDY    23  18  80 NW13      29.98R WCI  11
FARGO          CLOUDY    27  22  81 N12       29.98R WCI  17
CANDO          CLOUDY    21  19  93 NW8       30.00R WCI  12
CAVALIER       CLOUDY    25  23  93 N5        30.00R WCI  19
GWINNER        CLOUDY    28  28 100 N12       29.97R WCI  18
LANGDON        CLOUDY    23  19  86 N8        29.96R WCI  14
ROLLA          CLOUDY    18  18 100 N8        29.98R WCI   7
WALHALLA         N/A     25  23  93 N10       30.00R WCI  15
$$

CITY           SKY/WX    TMP DP  RH WIND       PRES   REMARKS
ABERDEEN       CLOUDY    28  23  81 N9        29.96R WCI  19
MOBRIDGE       CLOUDY    28  22  78 N10       29.95R WCI  19
BUFFALO          N/A     21  16  81 N12       29.91R WCI   9
RAPID CITY     CLOUDY    21  18  88 N17       29.95S WCI   7
GLASGOW        CLOUDY    21  14  74 E5        30.04R WCI  15
SIDNEY         CLOUDY    19  12  73 NW8       30.09R WCI   9
WOLF POINT     MOCLDY    14   9  80 NE5       30.09R WCI   6
GLENDIVE       CLOUDY    19  14  79 N12       30.05S WCI   7
MILES CITY     CLOUDY    23  18  81 N5        30.04R WCI  17
BAKER          CLOUDY    20  16  84 NW10      30.01R WCI   9
$$

CITY           SKY/WX    TMP DP  RH WIND       PRES   REMARKS
BILLINGS       FLURRIES  24  19  81 SW3       29.99S
GREAT FALLS    CLEAR     15  10  80 S12       29.92R WCI   2
REGINA         PTCLDY    -6  -9  84 NW6       30.08R WCI -18
ESTEVAN        FLURRIES   5   0  78 NW10      30.07R WCI -10
$$



USA.gov is the U.S. government's official web portal to all federal, state and local government web resources and services.